Wind_Speed
42 42 41 40 39 38 36 35 32 29 29 29 30 31 30 29 29 28 27 27 26 26 25 25 24 23 22 21 20 20 20 19 19 19 19 18 18 17 16 16 14 11 10 11 12 12 11 11 10 10 10 10 11 11 11 12 12 12 12 13 13 14 14 14 17 21 21 19 20 20 19 19 20 20 20 20 21 22 23 23 23 24 24 25 26
43 42 41 41 40 39 37 36 34 31 30 30 31 31 30 29 29 28 28 28 27 26 26 26 25 25 24 23 22 21 21 20 19 20 20 20 20 19 19 18 17 14 12 12 13 12 12 12 11 11 11 12 12 11 12 12 12 12 13 14 15 15 16 17 18 20 22 22 21 22 22 23 24 23 24 24 24 24 26 27 27 28 28 28 28
43 42 41 41 40 39 38 37 35 33 31 31 31 30 30 29 28 28 28 28 28 27 27 27 27 27 26 25 24 23 22 21 20 20 21 22 22 21 20 20 19 18 16 15 14 13 14 13 12 12 12 12 12 12 13 14 13 14 14 15 16 16 17 18 19 20 22 23 23 23 23 24 26 27 27 28 28 29 29 30 30 31 31 31 31
42 43 42 41 40 38 38 37 36 34 33 32 32 30 29 28 28 28 28 28 28 28 27 27 28 28 27 27 26 24 23 22 21 21 22 23 23 22 22 22 21 20 19 17 15 15 15 14 14 14 13 13 14 13 14 15 15 15 15 16 16 16 17 19 20 20 21 23 25 25 25 27 28 28 28 30 31 32 33 33 33 31 30 30 30
41 43 42 41 40 39 38 37 36 36 34 33 33 31 29 29 29 29 28 28 28 28 28 28 28 29 29 28 27 26 25 24 23 22 22 23 23 23 23 23 22 21 20 19 17 16 16 16 15 15 15 15 15 15 15 16 16 16 17 17 18 17 15 16 16 16 17 21 24 26 27 28 29 29 29 30 31 33 34 34 32 32 31 30 30
40 42 42 41 41 40 39 38 38 37 36 34 33 32 30 29 29 30 29 29 29 29 29 29 29 30 29 28 28 27 26 25 25 24 24 23 24 24 23 23 22 21 20 19 19 18 18 17 17 17 16 16 16 17 17 17 18 19 19 20 20 18 17 16 15 13 14 17 20 23 25 27 29 31 30 30 31 33 34 34 32 31 32 32 33
40 42 42 41 41 41 40 40 39 37 37 35 34 32 31 30 30 30 30 29 29 30 30 30 30 30 29 29 28 28 27 27 26 26 26 25 25 24 24 23 22 21 20 20 20 19 19 18 18 18 17 17 18 18 19 20 20 21 21 21 20 20 19 18 16 14 14 14 16 20 23 26 29 31 31 30 31 32 33 33 32 31 33 35 35
42 43 43 42 42 43 42 41 40 38 37 36 35 33 32 32 31 31 30 30 30 31 31 30 30 30 30 29 29 28 28 28 27 28 27 27 26 26 25 24 24 23 22 22 21 20 20 20 19 19 18 18 19 19 20 21 22 22 22 21 21 19 17 15 14 14 14 14 16 17 20 26 29 30 30 29 29 30 29 27 25 26 28 30 31
42 43 44 44 43 43 43 42 40 39 38 37 36 36 35 34 33 32 31 30 30 30 30 30 30 31 31 30 30 30 29 29 29 29 29 28 28 27 27 26 26 25 24 23 22 21 21 21 21 21 21 20 19 20 21 22 23 23 22 22 20 17 13 12 12 13 13 14 14 15 19 25 27 28 29 26 23 26 26 22 20 21 22 24 27
43 44 45 45 44 43 43 42 41 40 40 38 37 37 36 35 34 33 31 30 30 30 30 29 30 30 31 31 30 30 30 30 29 29 29 29 29 28 29 28 27 27 26 25 24 23 23 22 22 23 24 23 21 21 23 23 24 24 23 22 21 17 12 12 13 13 14 15 15 15 19 23 26 26 25 20 18 23 24 22 21 21 21 22 23
45 45 45 45 45 44 43 42 42 41 41 40 38 37 37 36 35 33 32 31 31 31 30 31 30 29 30 30 30 30 30 30 30 29 28 29 29 29 29 29 29 28 27 27 26 25 25 24 24 25 25 24 23 23 24 25 25 25 23 22 21 19 16 14 14 13 14 16 16 16 18 22 26 24 19 17 19 23 26 26 24 23 23 24 23
46 45 45 45 44 43 42 42 42 42 42 41 39 38 37 36 36 35 34 33 33 32 32 32 32 30 30 30 31 31 31 31 31 30 29 29 29 29 29 29 30 30 29 28 27 26 26 26 25 26 26 26 25 24 25 26 25 25 23 22 22 21 20 18 18 17 17 17 17 17 19 24 28 23 17 18 23 26 29 31 28 25 25 25 24
45 45 45 44 43 42 42 42 42 43 43 42 40 39 38 37 37 36 35 34 34 34 34 33 33 33 32 32 32 31 32 32 32 30 30 30 29 29 29 30 30 30 30 29 28 28 28 27 26 26 26 27 26 25 25 26 26 24 23 23 24 23 22 22 21 21 21 21 21 23 23 24 28 25 20 22 25 26 28 31 30 28 28 28 27
44 45 44 43 42 41 41 42 42 43 43 43 42 41 39 39 38 36 35 35 35 35 35 34 34 34 33 33 33 32 32 33 33 31 30 30 30 30 30 30 31 31 31 30 30 29 29 29 28 27 27 27 26 26 26 25 25 24 22 22 23 23 23 23 23 23 23 23 25 27 25 23 26 26 24 23 23 23 24 27 31 33 34 36 36
43 44 43 42 41 41 41 41 42 42 43 43 42 41 40 39 38 36 35 35 35 35 35 34 34 34 33 33 33 34 34 35 35 33 31 31 31 31 31 32 32 32 33 32 31 31 30 30 29 28 27 26 26 26 25 24 23 23 21 19 19 21 20 20 21 23 23 23 25 26 26 25 25 25 24 23 23 24 24 25 29 33 36 41 43
43 43 42 41 40 40 40 40 41 41 41 41 41 41 40 39 38 37 36 36 36 35 34 34 33 33 32 32 33 33 34 35 36 35 34 33 32 32 32 33 33 33 34 33 33 32 32 31 30 29 27 26 25 25 24 22 22 23 23 21 19 18 18 17 19 21 22 21 22 25 27 28 25 22 22 23 23 23 24 26 29 30 34 40 44
44 42 41 40 40 39 39 39 40 40 41 41 41 41 40 39 38 37 36 36 35 35 34 33 33 32 32 33 33 34 34 35 36 35 34 34 33 33 33 33 33 34 34 34 34 33 33 32 30 28 27 25 26 25 23 21 22 24 25 25 23 20 18 17 19 21 19 18 21 25 27 27 25 22 21 21 21 22 23 27 28 28 32 37 41
43 41 40 40 39 38 37 37 38 39 40 41 40 40 39 38 37 36 35 34 34 35 34 33 33 33 33 33 33 33 33 33 34 34 34 33 33 32 32 33 33 34 34 34 34 33 33 33 31 29 27 25 26 25 21 21 23 25 26 27 27 24 19 17 17 19 19 20 23 26 26 26 24 21 19 18 18 20 23 26 27 27 31 33 35
41 40 39 38 38 37 36 36 36 37 38 39 39 39 38 37 36 35 35 34 34 34 34 34 34 34 33 34 33 33 32 32 33 33 33 32 32 31 32 32 33 34 34 33 33 33 32 32 32 30 27 25 25 24 21 21 24 25 26 28 27 24 20 16 16 16 18 21 25 25 25 25 22 19 18 17 18 20 22 24 26 27 29 30 32
39 38 38 38 38 37 36 36 35 36 36 37 37 37 37 36 36 35 35 34 34 33 33 33 34 33 33 33 32 32 32 31 33 33 32 32 32 31 32 33 33 33 33 33 32 32 32 31 31 30 28 25 24 23 22 23 25 26 27 28 27 23 19 17 17 19 20 24 26 25 23 21 20 19 19 20 20 21 22 23 24 26 28 32 34
38 38 38 38 37 36 35 34 34 34 35 34 34 35 35 34 35 35 34 33 32 33 32 31 30 30 30 30 30 30 31 32 32 33 33 33 32 31 32 33 33 32 32 31 29 28 27 25 24 24 24 22 21 22 24 24 25 27 29 31 29 25 22 20 21 22 24 25 25 22 19 18 18 19 19 19 18 17 17 19 22 26 30 33 35
36 36 37 36 36 35 34 33 32 32 33 32 32 32 32 32 33 33 32 31 31 31 31 30 29 27 27 27 27 26 28 30 31 33 33 32 32 31 32 32 31 31 30 26 22 21 20 17 16 18 19 18 19 22 24 25 26 28 30 31 29 27 24 22 22 24 25 24 22 18 17 18 18 18 18 19 18 18 19 22 25 28 31 31 31
34 35 36 36 35 34 33 32 30 30 31 31 31 31 31 31 33 32 30 30 28 25 24 25 25 24 23 23 22 21 21 24 28 32 33 31 30 30 30 29 29 29 27 21 17 17 16 15 15 17 17 18 20 23 24 25 26 27 28 28 27 25 24 23 24 27 26 21 17 15 15 16 17 17 19 20 20 22 24 26 28 29 29 29 29
34 35 35 35 34 33 31 29 28 28 29 29 29 29 29 29 30 30 28 26 23 20 18 19 19 20 21 21 20 19 19 20 23 28 31 30 29 27 26 25 25 26 24 18 15 16 17 16 17 18 18 18 20 23 24 25 26 26 25 25 25 25 26 25 24 24 21 16 13 13 13 14 15 16 18 20 21 23 25 26 27 27 27 28 28
34 34 34 33 32 32 30 28 27 27 27 27 27 27 27 27 28 28 27 23 19 18 19 18 18 18 19 19 19 19 19 18 19 22 25 27 26 25 23 22 22 23 22 18 17 20 22 21 21 21 19 19 21 22 23 24 24 23 23 23 23 24 25 24 21 20 17 14 13 13 13 14 16 17 18 20 22 23 24 24 24 24 24 24 23
33 32 32 32 31 30 29 28 27 26 26 26 25 25 26 26 26 27 25 22 19 19 19 19 19 18 17 17 18 18 19 19 18 19 21 23 23 23 21 21 20 21 21 21 21 22 24 24 23 22 21 20 21 22 22 23 22 21 21 22 21 21 22 21 20 18 16 14 13 13 13 15 16 17 19 20 21 21 22 22 21 20 20 19 19
31 30 30 30 30 30 29 28 26 25 25 25 24 24 25 25 25 27 27 24 21 20 19 19 20 19 18 17 17 18 20 21 20 20 21 22 22 22 20 20 21 22 23 24 23 22 23 23 23 22 22 22 22 22 22 21 20 19 20 20 19 19 19 20 19 16 13 12 12 12 13 15 16 17 18 18 18 18 18 18 17 16 16 16 18
29 29 29 30 30 29 28 27 26 25 25 26 25 24 25 26 26 26 28 27 25 22 21 21 22 21 20 19 19 20 21 22 21 20 19 20 20 20 19 20 22 23 24 25 24 24 25 24 24 24 24 24 24 23 21 20 19 18 19 18 17 17 18 17 15 12 11 11 11 12 13 14 15 16 15 15 15 15 14 14 13 14 15 17 19
28 28 28 28 28 27 28 27 26 24 23 23 25 25 25 26 26 24 24 26 26 25 23 23 22 21 22 22 21 21 21 22 21 20 19 19 18 17 17 19 21 22 23 24 23 24 26 25 25 25 25 24 23 22 20 20 20 19 18 17 17 17 15 13 12 11 10 10 10 11 13 14 14 13 11 11 11 10 9 10 11 13 15 18 19
27 26 27 28 28 26 27 27 25 24 21 21 24 28 29 28 27 25 24 24 25 26 26 26 23 22 22 21 21 22 22 22 21 20 20 19 18 17 17 18 19 20 21 22 22 23 25 25 24 25 25 24 23 22 22 22 21 20 19 18 17 15 13 12 12 12 11 11 11 12 12 11 10 8 6 6 6 6 7 9 13 15 16 16 17
25 24 25 27 26 25 26 26 25 25 22 20 23 27 29 29 28 26 26 26 25 25 26 27 26 26 24 22 22 22 22 21 20 20 20 19 17 18 19 19 19 19 21 22 21 20 21 22 24 24 24 24 24 24 23 23 21 20 19 18 17 16 14 14 15 14 12 11 11 10 9 8 6 5 3 2 3 5 7 9 11 13 13 12 13
20 20 21 23 25 26 26 26 26 23 20 21 23 22 23 28 30 28 28 28 27 26 26 25 26 27 26 25 24 23 22 21 20 19 20 19 18 18 18 19 19 20 20 22 22 20 20 22 24 25 25 25 25 25 24 23 21 20 19 18 18 18 16 16 17 14 11 9 9 9 9 8 6 5 3 1 3 4 6 7 6 9 11 12 14
14 15 15 16 19 22 21 21 23 20 17 19 20 17 17 21 24 26 29 30 29 28 28 27 26 25 24 24 24 23 23 22 21 19 19 20 19 18 17 17 17 18 20 21 22 21 21 21 21 23 25 26 25 24 22 21 19 18 16 16 17 17 17 17 15 13 11 11 11 9 9 8 6 4 3 2 3 3 4 5 5 7 10 12 14
12 14 13 11 12 15 14 13 15 15 14 14 16 16 15 15 16 20 25 27 28 28 28 28 27 25 23 22 22 22 22 22 20 19 19 18 18 17 16 16 17 18 20 22 22 21 21 21 21 22 23 24 23 23 22 22 21 19 17 16 16 17 16 14 12 12 12 12 10 9 9 8 6 4 3 3 3 4 4 5 5 7 9 12 14
10 12 14 12 11 11 10 10 12 12 13 13 13 13 13 14 15 18 20 22 24 27 27 27 26 24 22 22 22 22 22 21 19 19 18 18 18 17 17 18 20 21 23 24 25 24 23 22 21 20 20 21 21 22 21 21 21 21 20 19 17 15 13 12 12 14 13 11 10 11 10 8 5 4 3 4 4 4 4 5 5 7 9 12 13
6 6 8 10 10 9 9 11 12 11 12 12 11 12 13 13 13 14 16 19 21 21 21 21 21 20 19 20 20 21 21 21 21 20 19 17 17 17 17 19 21 23 24 25 24 22 20 19 19 19 20 21 21 21 21 21 22 21 21 19 17 15 14 14 15 15 13 11 11 11 9 6 5 3 4 5 5 4 5 6 6 7 9 12 13
8 8 8 10 10 8 8 11 12 12 11 10 10 12 13 13 12 14 16 18 17 15 14 15 15 16 17 18 19 20 20 20 19 17 15 15 15 17 20 22 23 23 22 21 20 18 17 18 18 18 19 19 20 21 22 22 21 19 18 17 15 15 15 15 14 13 12 11 11 10 8 6 5 3 3 4 5 5 5 6 7 7 9 11 12
7 7 9 11 10 9 9 11 12 11 10 9 9 10 12 14 16 18 17 14 13 13 13 12 12 13 15 17 17 18 18 17 15 14 15 16 18 19 20 21 22 22 20 19 19 18 18 18 18 18 18 19 20 21 20 19 19 19 18 16 14 14 14 13 13 13 12 10 10 9 7 6 5 4 3 4 5 6 6 7 7 8 9 10 10
4 4 7 10 10 9 8 8 8 8 8 8 10 12 14 16 17 17 15 14 14 13 12 12 13 13 15 16 17 16 15 15 14 14 17 19 19 18 18 19 21 22 21 21 21 20 21 21 21 21 22 22 21 21 20 20 20 20 17 15 13 13 14 14 14 14 12 10 9 9 7 6 6 5 4 5 6 7 7 8 8 9 9 10 10
5 2 5 7 7 6 4 5 6 5 6 9 12 14 15 16 16 15 14 15 15 15 14 14 15 16 17 17 17 17 17 16 16 16 18 20 20 19 19 20 21 22 22 22 21 20 20 21 23 23 22 21 20 21 21 22 21 18 16 16 16 16 16 15 14 13 12 11 10 8 7 6 6 5 5 7 9 10 9 9 10 10 10 10 10
6 4 0 4 6 6 6 8 8 6 7 10 12 14 15 15 14 13 13 13 15 17 18 17 18 20 21 20 21 21 20 18 18 19 21 22 23 23 23 22 22 22 22 22 21 20 19 20 20 20 19 18 18 19 20 18 15 13 13 14 14 14 13 12 12 12 11 10 8 7 6 6 7 7 7 9 11 11 10 10 11 11 12 11 12
6 6 5 1 2 3 6 8 9 10 10 11 12 13 14 14 14 13 13 14 16 18 20 21 23 24 24 24 23 22 20 19 20 21 22 23 24 24 23 22 21 21 20 20 19 18 18 18 17 17 17 17 17 17 16 12 9 8 8 8 8 8 9 8 8 10 10 9 7 8 9 9 10 10 10 11 12 12 12 12 11 11 12 12 12
7 8 8 6 5 4 3 3 5 8 9 10 11 13 15 16 16 17 17 16 17 20 23 26 27 27 26 26 23 20 18 18 20 21 22 21 22 21 20 19 18 18 18 17 16 14 14 14 14 15 15 14 15 15 14 12 11 10 9 8 7 9 10 10 10 11 12 11 10 10 10 10 10 10 11 12 12 13 13 12 12 11 12 12 12
6 9 10 8 7 6 4 2 2 3 4 6 8 11 14 17 19 20 21 21 22 24 26 27 28 28 28 26 23 20 19 20 21 21 21 21 20 20 20 18 18 17 16 15 14 12 12 12 12 12 12 12 11 11 11 11 11 11 11 11 10 11 12 13 13 13 14 13 13 11 9 8 8 9 11 12 12 12 12 12 12 12 13 13 13
7 10 12 11 9 7 4 2 1 2 3 4 7 10 13 16 19 21 24 25 26 27 28 28 29 29 28 26 23 20 20 21 22 21 21 20 19 19 18 18 17 16 14 14 13 13 12 11 10 11 10 10 10 10 9 10 11 11 12 12 13 13 13 13 13 13 13 13 13 12 11 10 9 9 10 11 12 12 12 13 13 13 13 13 13
8 10 12 12 10 8 5 3 4 5 5 5 7 10 13 16 19 22 25 27 29 30 31 32 32 32 30 27 24 22 23 24 23 22 21 20 19 18 17 16 15 14 13 12 12 11 10 10 10 10 10 10 10 10 10 9 10 10 10 11 11 12 12 12 12 13 13 13 13 13 13 13 12 13 14 15 14 14 15 15 14 13 13 13 14
7 8 9 10 9 8 6 5 5 7 7 8 9 12 15 18 21 24 26 28 30 31 32 33 34 33 30 28 26 25 25 24 22 21 20 19 18 17 16 15 13 12 11 11 11 10 9 9 9 8 8 7 8 8 8 7 7 8 8 9 10 10 11 11 12 12 13 13 14 14 14 14 14 15 16 16 15 15 15 14 13 12 13 14 14
7 6 6 6 5 5 5 5 6 8 9 10 12 14 17 20 23 25 27 29 30 30 31 31 31 30 28 27 27 26 24 22 20 20 19 18 16 16 15 13 12 10 9 9 9 7 6 6 6 5 5 5 5 5 5 6 7 7 8 8 9 9 10 11 12 12 13 13 14 14 14 14 14 14 14 15 15 15 15 15 13 13 13 14 14
8 6 6 6 5 5 5 7 9 11 12 13 15 16 19 21 24 25 27 27 28 28 28 27 27 26 26 27 27 26 23 21 20 19 18 18 17 17 15 13 11 10 10 10 9 7 6 6 5 4 4 4 4 4 5 6 7 7 8 8 8 10 11 11 11 12 13 13 14 13 13 12 13 13 13 14 14 15 15 15 15 15 14 14 13
8 6 5 5 5 5 6 8 11 13 14 15 17 19 21 23 25 26 26 27 27 27 26 26 25 24 24 24 23 22 21 19 17 16 15 14 14 14 13 12 11 10 10 10 9 7 6 5 5 4 3 4 4 4 5 6 7 8 9 9 9 10 11 11 12 12 12 12 13 13 13 13 13 13 14 15 15 15 15 16 16 16 15 14 14
4 4 5 5 6 6 8 9 11 12 13 14 15 17 19 20 22 22 23 23 23 23 22 21 20 20 19 19 19 18 17 16 16 15 13 13 12 12 12 11 10 9 8 7 6 5 5 5 5 4 4 5 5 5 6 7 7 7 9 9 10 10 11 11 11 12 12 12 13 13 14 15 15 15 16 17 17 16 16 16 15 16 16 15 14
Wind_Direction
215 215 215 215 216 218 220 221 221 220 221 222 223 225 226 226 228 228 227 228 228 227 227 227 229 230 230 230 231 231 232 231 232 237 238 238 240 238 237 242 244 239 235 237 244 250 252 254 256 256 257 261 266 268 271 278 283 284 286 288 290 291 292 292 293 298 304 306 308 309 308 305 304 304 304 303 303 303 300 297 294 292 292 293 293
214 215 215 215 216 217 219 222 222 221 221 222 223 224 225 225 226 227 227 227 226 226 226 226 227 229 230 232 232 233 234 233 233 236 238 239 241 242 241 242 244 245 245 246 250 254 256 257 258 258 258 260 262 264 266 269 272 276 281 286 288 290 292 295 296 297 301 305 306 307 308 309 307 306 306 304 303 301 299 299 298 298 298 298 298
213 214 214 215 216 216 218 220 221 221 220 220 222 223 224 224 224 224 225 226 226 225 225 226 227 228 230 232 233 233 235 235 234 234 237 239 240 242 244 245 248 251 254 257 258 258 258 259 259 259 260 261 262 263 265 265 265 268 274 281 286 290 294 297 298 297 298 299 299 300 301 300 300 302 303 303 302 301 300 299 300 300 302 302 301
212 215 214 214 216 216 216 218 219 219 218 219 221 221 222 223 223 222 222 224 226 224 223 225 227 229 230 231 232 233 234 235 235 236 238 238 239 241 243 246 248 251 254 256 256 255 257 259 259 260 261 262 265 266 267 269 271 273 277 281 286 290 292 293 294 293 293 292 293 294 294 293 295 297 299 300 301 301 301 301 301 302 303 302 301
209 215 215 213 214 215 215 216 217 218 217 218 219 219 220 223 224 223 220 222 224 224 223 224 227 229 230 231 232 233 234 235 236 237 238 238 239 240 243 245 248 250 252 253 252 252 255 256 258 259 260 262 267 270 272 275 278 283 286 289 292 291 286 283 284 282 283 287 290 291 292 295 297 298 299 300 300 300 301 301 303 305 305 303 300
206 213 215 214 214 214 214 215 216 216 215 216 217 218 218 220 224 224 221 220 222 224 224 224 226 229 231 231 232 233 235 236 237 237 237 238 239 240 242 244 247 248 249 251 252 253 255 256 257 258 259 262 266 271 276 280 284 287 290 292 294 292 287 284 281 278 278 282 287 292 297 300 301 302 303 303 302 302 302 302 304 304 304 303 304
204 212 216 214 213 214 213 213 214 215 215 214 216 218 218 218 222 225 222 221 222 225 226 226 227 229 231 232 233 234 236 237 238 237 236 236 238 239 240 242 244 246 247 249 252 254 255 257 257 257 258 262 266 272 277 281 284 286 288 290 291 290 288 285 281 278 277 279 285 292 297 299 300 301 302 303 302 302 303 303 302 301 303 306 308
206 212 215 214 214 214 213 212 213 214 214 214 215 217 218 218 221 225 224 223 223 225 227 230 230 231 232 233 233 235 238 239 239 237 235 235 237 239 240 240 242 245 249 251 251 253 255 258 261 262 262 263 267 272 276 279 281 283 284 285 286 286 283 277 274 275 276 277 281 285 290 294 296 298 302 303 302 303 304 302 300 302 307 309 308
206 211 215 216 215 214 213 213 213 214 215 214 215 217 219 220 222 225 225 224 223 225 226 229 232 234 233 233 234 235 237 239 239 237 235 235 236 238 240 240 242 246 250 252 252 254 255 256 260 264 266 267 269 272 274 276 277 279 280 281 280 278 273 269 271 273 275 276 275 276 281 287 292 298 303 303 301 303 304 302 301 303 306 306 306
209 213 217 218 217 215 213 213 213 214 215 215 215 216 219 221 222 223 224 224 223 224 225 227 230 233 235 234 234 235 236 238 238 237 236 235 236 238 239 241 244 247 249 251 253 255 256 257 259 262 265 268 270 271 272 273 274 274 273 274 274 269 263 265 268 268 271 273 273 273 276 282 289 295 299 299 299 301 304 305 305 305 306 305 305
213 216 218 218 218 217 215 213 214 215 216 217 216 216 218 221 222 223 223 224 225 225 226 227 228 230 234 235 234 235 236 237 238 237 236 236 236 238 240 242 245 247 249 250 252 254 256 258 260 262 265 266 268 269 270 271 272 272 270 268 266 263 258 258 260 262 266 269 271 273 274 281 290 293 293 294 297 301 305 307 306 305 306 304 304
214 217 217 218 219 218 216 214 214 215 217 217 217 216 218 220 222 223 223 224 225 226 227 229 229 229 232 235 236 236 237 238 238 238 236 236 236 238 240 243 245 247 249 250 252 253 255 257 259 262 265 267 268 268 269 270 271 270 269 265 261 258 254 254 255 256 259 263 267 270 272 283 292 293 290 294 301 308 310 308 306 303 301 299 298
213 216 217 218 219 218 217 215 215 216 217 218 217 217 218 219 221 223 224 225 227 229 230 231 232 232 233 236 238 237 238 240 239 237 237 236 236 236 239 242 245 248 249 251 252 253 254 255 256 259 262 265 268 269 269 271 271 270 266 262 260 257 253 252 253 253 257 259 262 268 274 282 289 290 293 302 308 312 310 307 307 304 299 298 297
213 217 217 218 219 218 217 217 217 218 219 219 219 218 218 220 222 223 225 228 230 232 233 234 235 235 236 238 239 239 239 241 240 238 236 236 236 236 238 240 243 246 249 251 252 253 254 255 256 257 260 262 265 267 268 271 272 271 268 262 259 257 252 251 251 252 255 258 263 272 278 279 282 289 300 309 309 306 303 302 304 304 304 305 304
213 218 219 219 219 218 218 218 219 220 221 221 221 221 221 222 223 225 226 229 232 233 235 237 238 239 239 240 241 241 241 241 241 239 236 235 235 236 237 239 241 244 247 249 251 253 254 256 257 258 259 261 263 265 268 270 270 269 268 265 261 258 254 251 250 249 250 255 265 275 277 276 282 293 303 306 303 301 299 297 300 304 307 307 306
214 219 220 219 218 217 217 218 219 221 222 223 224 224 224 224 225 226 227 230 233 235 236 238 240 241 242 242 242 243 242 242 242 241 239 238 238 237 238 240 241 243 245 247 250 252 254 256 257 258 259 260 261 262 264 266 264 262 262 263 262 260 258 256 256 254 251 255 265 270 270 274 285 298 302 300 300 300 297 295 300 306 308 306 307
217 221 220 219 218 217 217 218 219 220 222 224 224 224 225 226 226 226 227 229 233 236 237 238 239 240 241 241 242 242 243 243 244 243 242 241 241 241 241 242 242 243 244 246 248 251 253 254 256 257 258 258 259 260 259 256 253 255 257 259 259 259 258 257 262 265 265 265 267 268 272 282 296 302 300 298 299 299 297 300 305 309 308 307 309
219 221 220 219 218 217 217 218 219 220 222 223 224 224 225 226 226 226 227 228 231 235 236 237 238 238 239 241 242 243 243 244 245 245 244 243 243 243 243 244 244 244 244 246 247 249 251 253 254 255 255 255 256 257 253 246 244 248 252 254 255 258 259 259 264 273 280 277 271 272 280 291 298 298 297 297 297 297 298 302 306 308 308 308 311
219 219 219 219 218 218 218 218 219 220 222 222 223 224 225 225 226 226 227 228 230 232 235 237 238 239 240 242 244 244 244 245 246 246 244 243 242 242 242 243 244 244 244 245 247 248 249 252 253 253 252 251 252 251 245 238 238 242 246 249 253 258 261 263 264 267 272 273 273 278 286 292 294 295 296 296 295 296 300 304 308 312 312 312 314
218 219 219 218 219 219 219 218 218 220 222 223 224 225 226 227 228 229 230 230 232 233 234 237 240 242 243 244 246 246 245 245 247 246 244 242 240 239 240 241 242 243 244 245 246 248 249 251 253 253 251 247 245 244 239 233 233 237 241 245 250 255 259 262 264 265 266 270 275 281 287 290 295 299 300 302 305 307 310 313 314 315 314 311 310
217 219 219 218 219 219 220 220 220 221 224 225 226 227 228 229 231 233 233 233 234 235 235 235 237 240 243 244 245 246 246 245 246 246 244 242 239 238 238 239 240 242 243 244 245 246 247 249 250 252 250 242 235 234 232 229 228 231 237 242 247 253 257 263 268 269 269 271 275 280 284 289 294 298 302 309 314 313 311 309 308 307 306 305 304
217 218 217 216 217 219 220 221 221 223 225 226 227 228 229 230 232 233 233 234 235 237 237 237 236 237 239 241 242 243 245 246 247 246 245 243 240 238 238 238 239 241 241 242 241 241 242 243 241 244 243 232 221 222 224 225 226 229 235 241 246 253 258 262 264 265 265 270 274 278 283 289 294 300 305 311 314 310 305 303 302 303 304 305 305
216 216 216 215 216 217 219 220 220 221 223 225 226 227 227 228 230 231 231 232 233 234 235 236 236 234 235 238 238 236 238 242 244 244 243 242 240 238 237 237 238 238 238 237 235 235 238 236 234 238 236 222 214 216 219 222 226 229 234 239 244 250 254 254 256 259 262 265 267 270 279 288 294 301 305 309 310 308 306 305 305 307 310 313 315
215 215 215 215 215 216 217 218 218 219 221 223 224 225 226 227 230 231 232 231 228 227 227 228 228 229 230 232 233 233 234 236 240 243 242 239 237 236 235 235 234 234 233 231 230 233 235 232 232 235 232 219 214 216 218 221 226 229 231 234 238 243 248 250 252 256 259 261 263 271 284 292 297 301 304 307 307 306 306 307 310 315 319 320 323
215 215 215 213 213 214 215 216 217 218 220 221 222 222 224 226 228 229 230 226 220 220 222 222 223 225 227 227 228 232 234 233 235 241 242 237 233 233 233 232 232 231 230 227 221 222 225 226 228 230 227 220 217 219 220 222 226 227 229 231 232 235 243 248 248 246 248 256 268 280 292 297 301 304 306 307 307 306 307 311 316 321 321 321 324
214 214 214 213 212 212 213 214 216 217 218 220 221 222 223 225 226 227 225 220 214 215 217 218 220 223 224 226 227 229 232 232 232 237 240 236 230 230 233 233 230 227 227 227 224 221 221 223 224 226 226 224 223 224 225 226 227 229 229 228 229 232 236 239 237 235 241 253 266 277 286 293 299 303 304 305 306 307 310 315 319 320 320 322 326
215 214 214 213 212 211 211 212 213 214 216 218 218 221 223 223 225 227 224 216 210 212 214 214 218 221 223 224 226 225 227 230 228 229 236 237 230 226 229 231 227 223 222 223 225 225 224 223 224 226 227 228 228 229 231 232 232 231 230 230 232 229 222 220 224 231 241 254 267 278 285 292 297 299 301 303 305 309 313 316 318 321 325 332 337
214 215 214 213 213 212 211 211 209 210 212 214 213 215 218 219 220 224 226 220 213 211 213 214 215 217 220 222 225 226 227 229 228 227 230 233 231 230 231 230 226 222 221 220 221 223 224 222 223 225 227 230 233 233 234 235 234 234 234 231 225 216 208 209 218 226 235 250 264 276 284 288 291 293 297 301 304 309 315 318 326 335 343 350 352
214 215 214 213 213 212 212 211 209 206 208 210 210 211 212 214 215 218 223 226 220 213 214 218 219 220 222 224 226 227 228 230 231 229 226 228 233 237 235 230 225 222 222 219 216 219 223 221 222 227 230 232 236 236 235 234 233 231 227 218 209 204 202 207 215 221 230 243 255 266 273 278 281 285 291 298 303 312 323 339 355 4 9 12 6
214 212 211 211 211 211 211 211 210 208 205 207 214 216 214 214 216 214 215 223 226 220 215 216 219 221 223 225 227 228 229 231 231 230 231 235 240 238 232 229 224 219 218 217 214 219 225 225 225 229 232 233 235 236 234 234 231 223 212 203 199 199 198 202 212 219 226 234 244 254 259 262 267 273 279 290 307 331 356 13 21 23 20 14 3
211 209 210 212 212 212 210 208 210 210 204 205 219 226 223 221 222 218 214 218 226 229 224 220 219 221 221 223 226 228 231 235 235 234 238 243 241 233 230 230 224 215 214 214 213 216 223 225 227 230 231 231 234 235 233 229 223 211 199 192 194 198 200 207 215 219 224 229 234 238 237 235 237 239 243 281 337 7 18 22 20 15 10 356 348
207 207 209 213 216 218 217 215 216 215 209 210 221 228 227 226 228 227 224 223 226 231 234 231 228 227 228 230 232 232 234 238 240 239 241 243 239 232 231 230 223 216 215 214 213 215 221 226 228 229 229 229 230 229 226 219 209 200 193 191 195 199 201 208 213 213 216 218 216 213 209 208 209 213 227 328 12 15 16 15 357 348 353 352 353
194 196 201 209 213 214 215 216 217 215 211 215 220 221 220 225 229 232 233 232 232 236 240 242 241 239 237 237 238 238 237 239 242 241 238 236 234 231 231 230 224 219 218 219 220 222 224 224 224 224 225 225 222 217 211 202 193 189 188 188 191 196 201 207 210 208 205 200 196 197 200 202 210 222 243 323 346 330 337 345 331 331 344 352 356
178 185 189 196 204 205 204 206 209 207 206 210 214 216 216 216 222 231 235 235 236 239 242 243 244 244 242 238 239 240 240 238 238 238 235 233 232 230 228 227 224 222 223 225 225 221 218 217 220 222 223 218 209 200 194 188 181 179 180 184 192 202 208 209 206 203 199 190 187 194 200 203 212 220 230 260 282 289 300 303 304 320 341 351 354
182 191 193 193 197 202 206 207 206 205 207 207 207 211 214 211 217 230 235 233 233 237 239 240 240 240 238 236 235 236 237 234 232 232 231 230 230 228 225 224 221 221 223 225 225 225 223 223 225 223 214 203 193 188 187 185 183 184 190 196 203 210 212 207 201 197 188 180 187 200 204 205 210 212 225 253 273 288 295 295 300 313 332 346 351
168 189 200 202 204 208 211 213 211 208 207 206 202 202 203 204 210 220 221 219 224 230 234 235 235 233 231 232 232 231 232 231 229 226 224 220 214 213 219 219 214 214 218 219 220 222 220 215 209 199 189 182 179 179 182 186 189 194 199 202 203 204 204 204 203 198 187 183 197 208 208 209 220 222 230 253 272 289 297 305 314 314 324 343 351
153 164 181 190 194 200 210 215 215 210 202 196 192 191 193 193 194 201 208 211 213 217 221 226 231 230 227 226 227 228 229 229 226 222 222 220 211 211 220 222 215 213 217 215 211 207 201 196 191 184 180 180 181 182 187 192 195 199 203 206 209 210 209 206 205 203 197 195 205 214 213 216 231 238 235 255 278 294 299 309 318 315 321 339 347
148 170 186 185 180 187 204 208 205 198 192 190 187 185 186 190 195 202 209 209 205 208 215 219 221 223 221 219 219 222 225 225 222 215 214 212 207 208 217 219 215 214 213 206 198 192 186 182 179 176 180 186 188 188 192 198 200 203 208 212 215 215 210 204 203 207 207 204 209 219 220 219 236 258 271 275 286 296 302 310 317 318 322 331 337
94 156 181 177 170 174 188 191 184 179 181 189 195 197 199 203 207 209 209 206 204 208 214 214 211 210 212 210 208 207 205 203 201 201 199 193 188 191 198 197 195 196 195 189 185 181 178 177 179 181 187 193 193 192 196 202 205 207 207 206 206 205 203 203 205 208 210 208 209 216 221 224 243 272 288 282 287 300 305 308 312 317 320 324 328
46 111 167 159 146 141 147 153 154 162 180 193 201 205 208 211 214 212 210 211 209 206 208 212 208 203 200 196 188 183 181 179 179 185 187 181 177 179 181 179 178 179 178 176 174 174 176 182 185 188 194 197 196 196 200 203 205 204 197 194 198 201 200 203 206 208 211 214 217 223 232 241 257 280 288 283 291 304 309 307 311 315 315 316 321
38 19 164 153 142 146 162 166 159 159 180 197 203 207 208 209 210 211 212 215 212 207 206 204 197 190 187 181 176 177 181 181 181 184 184 180 178 178 175 172 171 171 170 171 173 175 181 187 189 192 197 199 197 199 201 203 204 204 199 200 205 207 205 208 213 215 216 222 230 237 243 252 265 278 286 291 300 308 308 304 307 309 309 312 317
16 357 348 348 184 206 203 191 184 184 193 202 207 207 205 206 207 208 208 211 215 215 209 199 189 183 179 177 179 185 188 185 182 184 184 183 183 184 181 176 173 171 170 173 175 178 182 186 188 192 196 199 201 203 203 200 196 195 194 198 204 205 205 213 224 227 225 227 237 245 251 262 276 288 296 300 302 302 299 298 301 303 303 305 308
350 342 347 357 350 327 303 238 206 199 200 206 211 209 206 206 207 208 207 207 209 208 201 192 184 179 174 174 179 184 183 178 176 178 178 178 178 178 178 177 175 175 175 174 172 173 178 183 187 191 194 198 204 208 211 212 211 208 207 209 210 208 207 212 225 235 236 238 246 256 265 274 282 288 293 293 292 293 295 297 300 301 300 301 303
348 334 338 349 350 339 333 318 231 201 201 216 223 219 214 209 205 202 199 196 192 189 185 181 177 174 170 169 172 174 174 173 171 168 168 168 170 172 174 175 175 177 180 179 177 178 181 184 187 191 194 197 200 204 209 215 219 223 227 232 234 233 230 232 239 247 248 248 251 257 267 278 284 287 288 286 287 292 297 298 299 300 301 302 304
326 329 334 339 338 334 333 321 232 211 218 232 234 228 219 209 200 194 190 186 182 178 174 171 170 169 167 167 171 173 170 166 163 162 162 164 166 169 171 172 175 178 181 184 187 189 189 188 188 188 188 188 189 192 199 208 215 223 229 233 235 239 242 244 247 251 255 257 258 259 262 268 275 278 278 280 286 292 295 296 297 300 302 303 303
316 327 333 333 330 326 319 277 231 223 226 230 228 223 213 203 196 191 187 183 180 177 174 171 170 170 170 170 171 170 165 160 157 156 156 157 158 159 160 163 166 169 171 173 175 176 180 184 184 180 177 178 181 187 194 203 210 217 225 232 236 238 242 246 251 255 258 261 263 264 268 273 277 278 279 283 289 291 292 295 299 301 301 300 300
311 325 330 328 323 317 304 276 241 224 218 214 212 208 202 197 192 189 186 184 182 180 177 174 174 174 174 172 169 165 161 158 154 151 150 150 149 150 149 149 152 156 159 160 161 164 171 177 176 173 175 181 186 189 192 200 209 217 224 232 237 240 243 248 253 256 259 262 266 270 274 280 283 285 286 289 289 288 290 295 300 301 300 298 297
296 308 313 309 300 287 270 250 231 218 210 203 200 197 193 191 189 187 185 184 183 180 178 176 174 173 171 168 164 160 159 158 156 152 150 149 147 146 145 144 144 145 144 145 148 154 158 160 161 167 173 180 186 194 203 215 225 231 235 239 245 250 253 254 256 259 260 263 267 271 275 278 281 285 288 289 288 289 291 292 291 292 294 296 296
285 291 292 285 277 261 238 218 205 199 196 195 193 189 186 184 184 184 184 184 182 180 178 177 176 175 172 167 163 161 161 161 160 156 152 147 143 140 140 142 143 139 136 138 142 144 146 150 161 174 182 185 194 209 225 237 245 249 251 254 258 261 261 260 261 261 261 262 265 268 271 273 276 279 283 286 289 292 294 293 292 293 294 295 295
272 271 264 256 247 234 220 208 195 187 184 185 185 183 181 180 179 179 180 180 179 179 178 177 177 177 174 168 162 158 154 151 148 144 140 136 134 133 137 143 145 142 141 143 145 149 157 168 177 185 196 209 217 225 241 256 265 270 271 272 273 273 272 271 270 269 269 269 270 272 273 274 276 279 281 282 284 286 289 291 293 294 295 294 294
228 212 202 197 188 183 188 191 185 175 167 164 164 166 168 169 168 168 169 169 168 167 166 163 159 156 152 148 146 145 144 144 144 143 140 139 141 145 150 153 154 152 151 152 159 175 185 187 190 201 217 229 231 233 242 253 260 266 271 274 276 277 278 279 280 280 280 279 278 278 279 280 281 281 281 280 280 280 282 286 290 293 294 295 296
Height
1518 1522 1525 1529 1531 1534 1537 1540 1543 1546 1548 1551 1553 1555 1558 1560 1563 1565 1567 1569 1570 1572 1574 1576 1578 1580 1581 1583 1584 1586 1587 1588 1590 1590 1592 1593 1593 1595 1596 1597 1598 1598 1599 1600 1601 1601 1601 1602 1603 1603 1604 1604 1604 1604 1604 1604 1603 1603 1604 1603 1603 1603 1603 1603 1602 1600 1600 1600 1599 1599 1598 1597 1596 1595 1594 1592 1591 1590 1588 1587 1586 1585 1584 1583 1582
1514 1517 1521 1524 1527 1531 1534 1537 1540 1542 1545 1548 1550 1553 1555 1557 1560 1562 1564 1566 1568 1570 1572 1573 1575 1577 1578 1580 1581 1583 1584 1586 1587 1588 1589 1591 1592 1593 1594 1595 1596 1596 1597 1598 1599 1600 1600 1600 1601 1601 1602 1602 1602 1602 1602 1602 1602 1602 1602 1602 1602 1602 1602 1601 1601 1599 1597 1597 1597 1596 1595 1594 1592 1592 1591 1590 1589 1587 1586 1584 1583 1581 1581 1580 1578
1510 1513 1517 1520 1524 1527 1531 1534 1536 1539 1542 1545 1547 1550 1552 1554 1557 1559 1561 1563 1565 1567 1569 1571 1572 1574 1576 1577 1579 1580 1582 1583 1585 1586 1587 1588 1589 1591 1592 1593 1594 1595 1596 1596 1597 1598 1598 1599 1599 1600 1600 1600 1600 1601 1600 1600 1601 1601 1601 1600 1600 1600 1600 1599 1598 1597 1596 1595 1595 1594 1593 1591 1590 1589 1588 1586 1585 1584 1582 1581 1580 1579 1578 1577 1575
1507 1509 1513 1517 1520 1524 1527 1530 1533 1536 1539 1542 1544 1547 1550 1551 1553 1556 1558 1560 1562 1564 1566 1568 1569 1571 1572 1574 1576 1577 1579 1580 1582 1583 1584 1586 1587 1588 1590 1591 1592 1593 1594 1595 1596 1596 1597 1597 1598 1598 1598 1598 1598 1598 1598 1598 1598 1598 1599 1599 1599 1599 1599 1597 1596 1595 1594 1592 1592 1591 1590 1589 1587 1587 1586 1583 1582 1580 1578 1577 1576 1576 1575 1574 1572
1503 1505 1509 1513 1517 1520 1523 1527 1530 1532 1535 1538 1541 1544 1547 1549 1550 1552 1555 1557 1559 1561 1563 1565 1566 1567 1569 1571 1573 1574 1576 1578 1579 1580 1582 1583 1584 1586 1587 1588 1590 1590 1592 1593 1593 1594 1595 1595 1596 1596 1596 1596 1596 1596 1596 1596 1596 1596 1596 1596 1596 1596 1596 1595 1593 1592 1591 1590 1589 1588 1587 1586 1584 1584 1583 1581 1579 1577 1574 1573 1572 1572 1571 1569 1568
1499 1502 1506 1510 1513 1516 1519 1523 1526 1529 1532 1535 1538 1541 1544 1546 1548 1549 1552 1554 1556 1558 1559 1561 1563 1564 1566 1568 1570 1571 1573 1575 1576 1578 1579 1580 1582 1583 1585 1586 1587 1588 1589 1590 1591 1592 1593 1593 1594 1594 1594 1594 1594 1594 1594 1593 1593 1593 1594 1594 1594 1594 1593 1592 1591 1590 1589 1588 1587 1585 1584 1583 1581 1580 1579 1578 1576 1573 1570 1569 1569 1568 1566 1565 1563
1495 1498 1502 1506 1509 1512 1515 1518 1522 1525 1528 1532 1535 1538 1540 1543 1545 1546 1549 1551 1553 1555 1556 1558 1560 1561 1563 1565 1567 1568 1570 1571 1573 1575 1577 1578 1579 1581 1582 1584 1585 1586 1587 1588 1589 1590 1590 1591 1591 1592 1592 1592 1592 1592 1591 1591 1591 1591 1591 1591 1592 1591 1591 1590 1589 1588 1588 1587 1586 1584 1582 1581 1579 1577 1576 1575 1573 1570 1567 1565 1565 1564 1563 1561 1559
1491 1494 1498 1501 1504 1507 1511 1515 1518 1522 1525 1528 1532 1534 1537 1540 1542 1543 1546 1548 1550 1552 1553 1555 1556 1558 1560 1562 1564 1565 1567 1568 1570 1571 1573 1575 1577 1578 1580 1581 1583 1584 1585 1586 1587 1588 1588 1589 1589 1589 1589 1589 1590 1590 1589 1589 1589 1589 1589 1589 1589 1589 1588 1588 1587 1586 1585 1585 1584 1582 1580 1578 1576 1574 1573 1572 1570 1567 1565 1563 1561 1560 1560 1558 1555
1487 1490 1494 1497 1500 1503 1507 1511 1515 1519 1522 1525 1528 1531 1533 1536 1538 1540 1542 1544 1547 1549 1550 1552 1553 1555 1557 1558 1560 1562 1563 1565 1566 1568 1570 1572 1574 1576 1577 1578 1580 1581 1582 1583 1584 1585 1586 1587 1587 1587 1587 1587 1587 1587 1587 1586 1586 1586 1587 1586 1586 1586 1586 1586 1585 1584 1583 1582 1581 1580 1577 1574 1572 1571 1570 1569 1567 1564 1562 1561 1559 1558 1557 1555 1553
1482 1486 1489 1492 1496 1500 1504 1508 1512 1515 1518 1521 1524 1527 1530 1532 1535 1537 1539 1541 1544 1545 1547 1549 1550 1552 1553 1555 1557 1558 1559 1561 1562 1565 1567 1569 1571 1573 1574 1576 1577 1578 1579 1580 1581 1582 1583 1584 1584 1584 1584 1584 1585 1585 1584 1583 1583 1584 1584 1584 1583 1584 1584 1583 1583 1581 1580 1579 1578 1577 1574 1571 1570 1569 1568 1568 1566 1562 1560 1559 1557 1556 1555 1552 1550
1477 1481 1485 1489 1492 1496 1500 1504 1508 1512 1514 1517 1520 1524 1527 1529 1531 1534 1536 1538 1540 1542 1544 1545 1547 1549 1550 1551 1553 1554 1556 1558 1559 1562 1564 1566 1568 1570 1571 1573 1574 1575 1576 1577 1579 1580 1580 1581 1582 1582 1582 1582 1582 1582 1581 1581 1580 1580 1581 1581 1581 1581 1581 1581 1580 1579 1578 1576 1575 1574 1572 1569 1568 1568 1567 1566 1565 1561 1558 1556 1554 1553 1551 1550 1548
1473 1477 1481 1485 1489 1492 1497 1501 1504 1508 1511 1513 1517 1520 1523 1526 1528 1530 1532 1535 1536 1538 1540 1542 1543 1545 1547 1548 1549 1551 1552 1554 1556 1559 1561 1563 1565 1567 1568 1570 1571 1572 1573 1574 1575 1577 1577 1578 1579 1579 1579 1579 1579 1579 1578 1577 1577 1577 1577 1577 1577 1577 1577 1577 1577 1576 1575 1574 1572 1571 1570 1568 1566 1565 1565 1564 1562 1560 1556 1554 1552 1550 1548 1547 1545
1470 1474 1478 1482 1485 1489 1493 1497 1500 1504 1507 1510 1513 1517 1519 1522 1524 1526 1529 1531 1533 1535 1536 1538 1540 1542 1543 1544 1546 1547 1549 1550 1552 1555 1558 1560 1562 1564 1565 1566 1567 1568 1569 1571 1572 1573 1574 1575 1575 1576 1576 1576 1576 1576 1575 1575 1574 1574 1573 1573 1573 1573 1574 1574 1573 1572 1572 1570 1569 1567 1567 1567 1564 1562 1562 1562 1560 1558 1555 1551 1549 1547 1544 1542 1541
1468 1471 1475 1478 1481 1486 1489 1493 1497 1500 1503 1506 1509 1512 1515 1518 1520 1523 1526 1528 1529 1531 1533 1535 1536 1538 1540 1541 1542 1544 1545 1546 1548 1551 1554 1556 1558 1560 1562 1563 1564 1565 1566 1567 1568 1569 1570 1571 1572 1572 1573 1573 1573 1573 1572 1572 1571 1570 1569 1569 1569 1570 1570 1570 1570 1569 1568 1567 1565 1564 1564 1565 1562 1560 1559 1559 1557 1556 1553 1550 1547 1544 1541 1538 1537
1465 1468 1472 1475 1478 1482 1486 1489 1493 1496 1500 1503 1506 1508 1511 1514 1517 1519 1522 1524 1526 1527 1529 1531 1533 1534 1536 1538 1539 1540 1542 1543 1544 1547 1549 1552 1554 1556 1557 1558 1559 1561 1562 1563 1564 1565 1566 1567 1568 1569 1569 1570 1570 1570 1569 1569 1568 1566 1566 1565 1566 1566 1566 1567 1566 1566 1565 1564 1563 1562 1562 1561 1560 1558 1557 1556 1554 1553 1551 1548 1545 1542 1539 1535 1532
1462 1465 1469 1472 1475 1478 1482 1486 1490 1493 1496 1499 1502 1505 1507 1510 1513 1516 1518 1521 1522 1524 1526 1528 1529 1531 1533 1534 1535 1536 1538 1539 1540 1542 1545 1547 1549 1551 1553 1554 1555 1556 1558 1559 1560 1561 1562 1563 1564 1565 1565 1566 1566 1566 1566 1566 1565 1564 1563 1562 1562 1563 1563 1564 1563 1563 1563 1563 1562 1560 1559 1557 1557 1556 1555 1553 1552 1550 1548 1546 1544 1542 1538 1533 1529
1458 1462 1465 1468 1471 1475 1479 1482 1486 1489 1492 1495 1498 1501 1504 1506 1509 1512 1514 1517 1519 1520 1522 1524 1526 1527 1529 1530 1531 1532 1534 1535 1536 1538 1541 1543 1545 1546 1548 1549 1550 1552 1553 1555 1556 1557 1558 1559 1560 1561 1562 1562 1562 1563 1564 1563 1562 1561 1560 1559 1559 1559 1560 1561 1560 1560 1560 1561 1560 1558 1556 1555 1554 1554 1553 1551 1550 1548 1545 1543 1542 1541 1537 1533 1529
1455 1458 1461 1465 1468 1472 1476 1479 1482 1486 1488 1491 1494 1497 1500 1503 1506 1508 1511 1513 1515 1517 1518 1520 1522 1523 1524 1525 1526 1528 1530 1531 1532 1534 1536 1538 1540 1542 1543 1545 1546 1547 1549 1551 1552 1553 1554 1555 1556 1557 1558 1559 1559 1559 1560 1560 1558 1558 1557 1556 1555 1555 1556 1558 1558 1558 1558 1557 1556 1554 1553 1552 1552 1551 1550 1549 1548 1546 1543 1541 1540 1538 1535 1532 1529
1451 1455 1458 1462 1466 1469 1473 1476 1479 1482 1485 1488 1491 1494 1497 1500 1502 1504 1507 1509 1511 1513 1515 1516 1517 1519 1520 1521 1522 1524 1526 1527 1528 1530 1532 1534 1536 1537 1539 1540 1541 1543 1545 1546 1547 1549 1550 1551 1552 1553 1554 1555 1555 1556 1556 1556 1555 1555 1554 1554 1552 1552 1553 1555 1556 1556 1555 1553 1551 1551 1551 1550 1549 1548 1547 1547 1545 1544 1542 1540 1538 1535 1532 1530 1528
1448 1453 1457 1460 1463 1466 1470 1473 1476 1479 1482 1485 1488 1491 1494 1496 1499 1501 1503 1505 1508 1509 1511 1512 1513 1515 1516 1518 1519 1520 1522 1523 1524 1525 1527 1529 1531 1533 1534 1535 1536 1538 1540 1542 1543 1545 1546 1547 1547 1548 1550 1551 1552 1552 1552 1552 1552 1552 1551 1550 1549 1549 1551 1552 1552 1551 1550 1549 1548 1549 1548 1547 1546 1545 1544 1543 1542 1540 1538 1537 1535 1533 1531 1528 1527
1447 1451 1454 1457 1461 1464 1467 1470 1473 1476 1479 1482 1485 1488 1491 1494 1496 1498 1500 1502 1504 1506 1507 1509 1510 1511 1513 1514 1515 1516 1517 1519 1520 1520 1522 1524 1526 1528 1529 1530 1532 1534 1536 1538 1540 1541 1542 1543 1544 1544 1546 1547 1548 1548 1548 1549 1549 1549 1548 1547 1546 1547 1547 1548 1547 1547 1546 1546 1545 1545 1545 1544 1544 1543 1542 1540 1539 1538 1537 1535 1534 1532 1531 1528 1526
1445 1448 1451 1455 1458 1461 1464 1467 1470 1474 1477 1479 1482 1485 1488 1491 1493 1495 1497 1499 1501 1502 1504 1505 1507 1508 1510 1510 1512 1512 1513 1514 1515 1516 1517 1519 1521 1523 1524 1526 1528 1531 1533 1534 1536 1538 1539 1540 1541 1541 1542 1543 1544 1544 1544 1545 1545 1545 1545 1544 1544 1544 1545 1545 1545 1544 1543 1543 1542 1542 1542 1541 1541 1540 1539 1538 1537 1536 1535 1534 1532 1531 1529 1527 1524
1442 1446 1449 1452 1455 1458 1461 1464 1468 1471 1474 1476 1479 1481 1484 1487 1489 1491 1494 1496 1498 1499 1501 1502 1504 1505 1506 1507 1508 1509 1510 1510 1511 1511 1512 1515 1517 1519 1521 1523 1525 1527 1529 1531 1533 1535 1537 1537 1538 1537 1538 1539 1540 1540 1541 1541 1541 1541 1542 1542 1542 1542 1542 1542 1542 1540 1540 1540 1540 1540 1539 1539 1538 1537 1536 1535 1534 1533 1532 1530 1529 1527 1525 1523 1521
1440 1443 1447 1450 1453 1456 1459 1462 1465 1468 1471 1473 1476 1478 1481 1484 1486 1488 1491 1493 1495 1497 1498 1499 1500 1502 1503 1504 1505 1506 1506 1507 1507 1507 1508 1510 1513 1515 1517 1520 1522 1523 1526 1528 1531 1533 1533 1534 1534 1534 1534 1535 1536 1536 1537 1537 1538 1538 1539 1539 1540 1540 1539 1539 1539 1538 1537 1537 1537 1537 1536 1536 1536 1535 1533 1533 1532 1531 1529 1527 1525 1524 1521 1519 1517
1438 1442 1445 1448 1451 1455 1457 1460 1463 1466 1468 1471 1473 1475 1478 1480 1482 1485 1487 1490 1492 1493 1495 1496 1497 1498 1500 1501 1502 1503 1503 1504 1504 1505 1505 1507 1509 1511 1513 1516 1518 1520 1522 1524 1526 1527 1528 1529 1529 1530 1530 1531 1532 1533 1533 1534 1535 1535 1536 1536 1538 1538 1537 1537 1537 1537 1536 1535 1534 1534 1534 1533 1532 1531 1530 1530 1529 1528 1527 1525 1523 1521 1520 1518 1516
1437 1441 1444 1447 1450 1453 1456 1458 1461 1464 1466 1468 1471 1473 1475 1477 1479 1481 1484 1486 1488 1490 1491 1493 1494 1495 1496 1497 1499 1500 1501 1502 1502 1503 1503 1504 1506 1508 1510 1512 1515 1517 1518 1519 1520 1521 1523 1524 1525 1526 1526 1527 1528 1529 1529 1530 1531 1532 1532 1533 1535 1535 1535 1535 1535 1535 1534 1533 1532 1532 1531 1531 1530 1529 1528 1527 1527 1526 1524 1523 1522 1520 1519 1517 1515
1437 1440 1443 1446 1448 1451 1454 1456 1459 1461 1464 1466 1468 1471 1472 1475 1476 1478 1480 1482 1484 1486 1487 1489 1491 1492 1493 1494 1495 1497 1498 1499 1500 1501 1501 1501 1503 1505 1507 1508 1511 1512 1513 1514 1516 1517 1519 1520 1521 1522 1523 1523 1524 1525 1526 1527 1528 1528 1529 1530 1532 1533 1533 1533 1533 1532 1532 1531 1530 1530 1529 1529 1528 1527 1526 1525 1525 1524 1523 1522 1521 1520 1518 1516 1513
1436 1439 1442 1444 1447 1449 1452 1454 1457 1459 1461 1463 1466 1468 1469 1471 1473 1474 1476 1478 1480 1482 1484 1485 1487 1488 1489 1491 1492 1493 1495 1496 1497 1498 1499 1499 1500 1501 1503 1504 1506 1507 1508 1510 1512 1513 1514 1515 1517 1518 1519 1520 1520 1521 1523 1523 1524 1525 1526 1527 1529 1530 1531 1531 1530 1530 1530 1530 1529 1529 1528 1528 1527 1526 1526 1525 1524 1523 1523 1522 1520 1519 1517 1514 1511
1435 1438 1441 1443 1446 1448 1450 1452 1455 1457 1459 1461 1463 1465 1466 1468 1470 1472 1474 1475 1477 1479 1481 1483 1484 1485 1487 1488 1489 1491 1492 1493 1494 1496 1497 1498 1498 1499 1499 1500 1502 1504 1505 1507 1509 1509 1510 1511 1513 1514 1515 1517 1517 1518 1520 1520 1521 1522 1523 1524 1525 1526 1527 1528 1528 1529 1529 1529 1529 1528 1528 1527 1527 1526 1525 1525 1524 1523 1522 1521 1519 1517 1516 1513 1511
1434 1437 1439 1441 1444 1446 1448 1451 1453 1455 1458 1460 1461 1461 1463 1465 1467 1469 1471 1472 1473 1476 1478 1480 1481 1483 1484 1486 1487 1488 1489 1490 1491 1493 1494 1495 1496 1497 1497 1498 1499 1501 1503 1505 1506 1507 1507 1509 1511 1511 1512 1513 1514 1515 1516 1517 1518 1519 1520 1521 1522 1523 1524 1525 1526 1527 1528 1528 1528 1528 1527 1527 1526 1526 1525 1525 1524 1522 1521 1519 1518 1516 1515 1513 1512
1433 1435 1437 1439 1441 1443 1446 1449 1450 1453 1456 1458 1458 1459 1461 1463 1464 1466 1468 1469 1470 1472 1474 1476 1478 1480 1481 1483 1483 1484 1486 1487 1489 1490 1491 1492 1493 1494 1495 1496 1497 1499 1501 1502 1504 1504 1505 1506 1508 1508 1509 1510 1511 1512 1513 1513 1515 1516 1517 1519 1520 1522 1523 1524 1525 1526 1526 1526 1526 1526 1526 1526 1526 1525 1525 1524 1523 1521 1520 1518 1517 1516 1515 1513 1512
1432 1434 1436 1438 1440 1442 1444 1446 1448 1450 1453 1455 1456 1457 1459 1461 1461 1463 1465 1467 1468 1469 1471 1473 1475 1476 1478 1479 1480 1481 1483 1485 1486 1487 1488 1490 1491 1492 1493 1494 1496 1498 1499 1501 1502 1502 1503 1504 1504 1505 1506 1506 1507 1508 1509 1510 1512 1514 1516 1517 1519 1521 1522 1522 1523 1524 1524 1524 1525 1525 1525 1525 1525 1525 1524 1523 1521 1520 1519 1517 1516 1516 1514 1513 1510
1432 1434 1436 1437 1438 1441 1443 1445 1446 1448 1450 1452 1453 1455 1457 1458 1459 1460 1462 1463 1465 1467 1468 1470 1471 1473 1475 1476 1477 1478 1480 1482 1483 1485 1486 1487 1489 1490 1492 1493 1495 1497 1498 1499 1499 1500 1500 1501 1501 1502 1502 1503 1503 1504 1506 1508 1511 1514 1516 1518 1519 1520 1521 1522 1522 1522 1522 1522 1523 1524 1524 1525 1524 1524 1523 1522 1520 1519 1518 1516 1516 1515 1513 1511 1509
1431 1433 1435 1437 1439 1441 1442 1443 1445 1446 1448 1450 1452 1453 1455 1456 1457 1457 1458 1460 1462 1464 1465 1466 1468 1470 1472 1472 1473 1474 1476 1478 1480 1482 1483 1485 1487 1489 1491 1492 1493 1495 1495 1496 1496 1496 1497 1497 1498 1499 1499 1500 1501 1503 1504 1508 1511 1514 1516 1518 1519 1519 1520 1521 1521 1521 1520 1520 1522 1523 1523 1523 1523 1522 1522 1521 1519 1518 1517 1516 1515 1513 1511 1509 1507
1431 1433 1434 1437 1439 1441 1442 1442 1443 1445 1446 1447 1449 1451 1452 1453 1454 1454 1455 1457 1459 1460 1461 1463 1465 1467 1468 1469 1470 1471 1472 1474 1477 1478 1480 1483 1484 1486 1488 1489 1490 1491 1492 1492 1492 1493 1494 1495 1496 1497 1497 1498 1500 1502 1504 1507 1509 1512 1514 1515 1516 1517 1518 1519 1519 1519 1518 1518 1520 1521 1521 1521 1521 1520 1520 1519 1518 1517 1516 1515 1513 1512 1510 1507 1505
1432 1433 1435 1437 1439 1440 1440 1441 1442 1443 1443 1444 1446 1448 1449 1450 1452 1452 1453 1454 1455 1457 1459 1461 1462 1464 1465 1466 1467 1468 1469 1471 1473 1475 1477 1479 1480 1482 1484 1484 1485 1486 1487 1488 1488 1490 1491 1493 1494 1495 1496 1498 1499 1501 1504 1506 1507 1509 1511 1512 1513 1514 1514 1515 1516 1517 1516 1517 1518 1519 1519 1519 1518 1518 1518 1517 1516 1515 1514 1513 1512 1510 1508 1506 1504
1430 1432 1433 1435 1437 1438 1438 1439 1440 1441 1442 1443 1444 1446 1447 1449 1450 1449 1450 1451 1453 1455 1457 1459 1460 1461 1462 1463 1464 1466 1467 1468 1470 1472 1474 1477 1478 1478 1479 1480 1480 1482 1483 1484 1486 1488 1490 1492 1493 1494 1496 1498 1499 1500 1502 1503 1505 1506 1508 1510 1510 1511 1511 1511 1513 1514 1514 1515 1516 1517 1517 1517 1516 1516 1516 1515 1514 1513 1512 1511 1510 1508 1506 1504 1502
1429 1430 1431 1433 1435 1437 1437 1438 1439 1440 1441 1442 1444 1445 1446 1446 1446 1447 1448 1450 1452 1454 1455 1456 1458 1459 1460 1461 1462 1464 1465 1467 1468 1470 1472 1474 1475 1476 1476 1476 1476 1477 1479 1481 1484 1486 1488 1491 1493 1494 1496 1497 1498 1499 1500 1501 1503 1504 1506 1507 1508 1508 1509 1509 1510 1511 1513 1514 1515 1515 1515 1515 1514 1513 1513 1513 1512 1511 1510 1509 1508 1507 1505 1503 1501
1431 1432 1433 1434 1435 1437 1437 1438 1438 1439 1440 1442 1443 1443 1444 1444 1444 1445 1447 1448 1450 1452 1453 1455 1456 1458 1459 1460 1461 1462 1463 1465 1467 1468 1469 1470 1472 1474 1475 1475 1474 1475 1476 1478 1482 1484 1487 1489 1490 1492 1493 1494 1495 1497 1498 1499 1501 1502 1504 1505 1505 1506 1507 1508 1509 1510 1511 1512 1513 1513 1512 1512 1512 1511 1510 1510 1510 1509 1508 1507 1506 1504 1503 1501 1500
1435 1435 1435 1436 1437 1438 1438 1438 1438 1439 1439 1440 1441 1441 1442 1442 1443 1444 1445 1447 1449 1450 1451 1453 1455 1456 1457 1459 1460 1461 1463 1464 1465 1467 1468 1470 1472 1473 1474 1474 1474 1474 1475 1477 1480 1482 1485 1486 1488 1489 1491 1492 1493 1495 1496 1497 1499 1500 1502 1503 1504 1504 1505 1506 1507 1508 1509 1510 1510 1510 1510 1509 1509 1508 1509 1509 1507 1506 1505 1505 1504 1502 1501 1499 1498
1438 1437 1437 1436 1437 1437 1437 1436 1436 1436 1437 1438 1439 1440 1441 1442 1443 1444 1445 1446 1447 1448 1450 1451 1453 1454 1456 1457 1459 1461 1462 1462 1463 1465 1467 1469 1470 1471 1472 1472 1473 1473 1475 1476 1478 1480 1482 1484 1486 1488 1490 1491 1492 1493 1494 1496 1497 1498 1499 1501 1502 1502 1503 1504 1505 1506 1507 1507 1507 1507 1507 1507 1506 1506 1506 1506 1505 1504 1504 1503 1502 1501 1499 1498 1496
1438 1438 1438 1437 1437 1437 1437 1436 1435 1434 1435 1436 1437 1439 1440 1441 1442 1443 1444 1445 1446 1447 1448 1449 1451 1453 1455 1456 1458 1459 1460 1461 1462 1464 1466 1468 1469 1471 1471 1472 1473 1474 1475 1477 1478 1480 1482 1483 1486 1487 1489 1490 1491 1492 1493 1494 1496 1497 1498 1499 1500 1501 1502 1504 1504 1504 1504 1505 1505 1504 1504 1504 1504 1504 1504 1504 1503 1503 1502 1501 1499 1498 1497 1496 1494
1437 1437 1437 1437 1437 1437 1438 1437 1436 1435 1435 1436 1437 1438 1439 1440 1441 1442 1443 1444 1445 1446 1446 1447 1449 1452 1454 1456 1458 1459 1461 1462 1463 1465 1467 1469 1470 1472 1474 1474 1475 1476 1477 1478 1479 1481 1482 1483 1485 1486 1487 1488 1489 1490 1491 1491 1492 1493 1494 1495 1496 1498 1499 1500 1501 1500 1501 1501 1502 1501 1501 1502 1502 1502 1503 1503 1502 1501 1500 1498 1497 1496 1494 1493 1491
1437 1437 1437 1437 1437 1438 1438 1438 1437 1436 1436 1437 1438 1438 1439 1440 1441 1442 1443 1443 1444 1445 1446 1447 1449 1451 1453 1456 1458 1459 1461 1463 1465 1467 1468 1470 1472 1474 1475 1476 1477 1478 1478 1479 1481 1482 1483 1483 1484 1484 1486 1486 1487 1488 1489 1489 1490 1491 1491 1492 1493 1494 1495 1496 1497 1497 1498 1498 1498 1499 1499 1500 1500 1500 1501 1501 1500 1499 1498 1496 1495 1493 1492 1490 1489
1437 1436 1436 1436 1437 1437 1438 1439 1438 1438 1438 1438 1439 1439 1440 1440 1441 1442 1442 1443 1444 1445 1446 1448 1449 1451 1454 1456 1458 1459 1461 1463 1466 1468 1469 1471 1473 1475 1476 1477 1478 1479 1480 1480 1482 1483 1484 1483 1483 1484 1485 1485 1486 1487 1488 1489 1489 1490 1490 1491 1492 1492 1493 1494 1494 1495 1495 1495 1496 1496 1497 1497 1497 1497 1498 1497 1497 1496 1495 1494 1493 1491 1490 1488 1487
1436 1436 1436 1436 1437 1438 1439 1439 1440 1439 1439 1439 1439 1440 1440 1441 1441 1442 1443 1444 1444 1445 1445 1447 1449 1451 1453 1455 1457 1458 1461 1464 1466 1468 1470 1471 1473 1475 1476 1477 1478 1479 1480 1481 1481 1482 1482 1482 1482 1483 1484 1485 1486 1487 1488 1488 1489 1489 1490 1490 1491 1491 1492 1492 1492 1492 1493 1493 1493 1493 1494 1494 1494 1494 1494 1493 1493 1492 1491 1490 1489 1488 1487 1486 1485
1436 1435 1436 1436 1437 1439 1440 1440 1441 1440 1440 1440 1440 1441 1441 1442 1443 1443 1444 1445 1445 1446 1446 1447 1448 1450 1452 1454 1456 1458 1461 1463 1466 1468 1470 1472 1473 1475 1476 1477 1478 1479 1480 1481 1481 1482 1483 1483 1483 1483 1485 1486 1487 1488 1488 1488 1489 1489 1489 1490 1490 1490 1491 1491 1491 1491 1491 1491 1491 1491 1491 1491 1491 1491 1490 1490 1490 1489 1488 1487 1486 1486 1485 1484 1482
1436 1435 1435 1436 1437 1439 1440 1441 1441 1441 1441 1441 1441 1442 1442 1443 1444 1445 1445 1446 1447 1448 1448 1449 1450 1451 1452 1453 1455 1457 1460 1462 1464 1466 1468 1470 1472 1474 1475 1477 1479 1480 1480 1481 1482 1483 1484 1484 1484 1485 1486 1487 1487 1488 1488 1488 1488 1489 1489 1489 1489 1489 1490 1490 1490 1489 1489 1489 1489 1489 1488 1488 1488 1487 1487 1486 1486 1485 1485 1484 1483 1483 1482 1481 1480
1435 1435 1435 1435 1436 1438 1439 1440 1441 1442 1442 1442 1442 1443 1443 1444 1445 1446 1447 1448 1449 1450 1451 1452 1453 1454 1454 1455 1455 1457 1459 1461 1464 1465 1467 1468 1470 1472 1474 1476 1477 1478 1479 1480 1482 1482 1483 1483 1484 1485 1485 1486 1486 1487 1487 1488 1488 1488 1489 1489 1489 1489 1489 1489 1488 1488 1488 1487 1487 1486 1486 1485 1485 1484 1484 1483 1483 1482 1482 1481 1480 1480 1479 1479 1478
1435 1434 1434 1435 1436 1437 1438 1440 1441 1442 1443 1443 1444 1444 1444 1445 1446 1447 1448 1449 1450 1451 1452 1453 1454 1456 1457 1458 1458 1459 1462 1464 1466 1468 1469 1470 1471 1472 1474 1475 1477 1477 1478 1479 1481 1482 1483 1483 1484 1485 1485 1485 1486 1486 1487 1487 1488 1488 1488 1488 1488 1488 1488 1488 1487 1487 1486 1486 1485 1484 1484 1483 1482 1482 1481 1480 1480 1479 1479 1478 1478 1477 1477 1476 1475
1435 1435 1435 1436 1436 1437 1439 1441 1442 1443 1444 1445 1446 1446 1447 1447 1448 1449 1450 1451 1452 1452 1454 1455 1456 1458 1459 1461 1462 1463 1465 1467 1469 1470 1471 1471 1472 1473 1474 1475 1476 1477 1478 1479 1480 1482 1483 1483 1484 1484 1485 1485 1485 1486 1486 1487 1487 1487 1488 1488 1488 1487 1487 1487 1486 1485 1484 1484 1483 1482 1481 1481 1480 1479 1479 1478 1477 1477 1476 1476 1475 1475 1474 1473 1472